GAOFEN-4

Last updated on Mon Jun 22 2026 00:02:51 GMT+0000 (Coordinated Universal Time)

1 41194U 15083A 26172.55360350 -.00000336 00000+0 00000+0 0 9992 2 41194 0.3702 83.8176 0004198 118.5029 12.4212 1.00272762 38576
UTC large
Height (km)
Speed (km/s)
/
Latitude / Longitude
Inclination (degrees)
Orbital Period (minutes)
Azimuth
Elevation
Range (km)
Doppler Factor

Next 0 passes for location: London (51.5072 / 0.1276)

No passes found over London.
GAOFEN-4